Time,TemperatureF,DewpointF,PressureIn,WindDirection,WindDirectionDegrees,WindSpeedMPH,WindSpeedGustMPH,Humidity,HourlyPrecipIn,Conditions,Clouds,dailyrainin,SoftwareType,DateUTC
2013-01-09 00:06:00,25.4,22.0,28.85,WNW,287,0.0,-999.0,88,-99.99,,,0.09,weatherlink.com 1.10,2013-01-09 05:06:00,
2013-01-09 00:21:00,25.4,22.0,28.85,WNW,287,0.0,-999.0,88,-99.99,,,0.00,weatherlink.com 1.10,2013-01-09 05:21:00,
2013-01-09 00:36:00,25.2,22.0,28.85,WNW,287,0.0,-999.0,88,-99.99,,,0.00,weatherlink.com 1.10,2013-01-09 05:36:00,
2013-01-09 00:51:00,25.2,22.0,28.85,WNW,287,0.0,-999.0,89,-99.99,,,0.00,weatherlink.com 1.10,2013-01-09 05:51:00,
2013-01-09 01:06:00,25.3,23.0,28.85,WNW,287,0.0,-999.0,89,-99.99,,,0.00,weatherlink.com 1.10,2013-01-09 06:06:00,
2013-01-09 01:21:00,25.3,23.0,28.76,WNW,287,0.0,-999.0,89,-99.99,,,0.00,weatherlink.com 1.10,2013-01-09 06:21:00,
2013-01-09 01:36:00,25.5,23.0,28.76,WNW,287,0.0,-999.0,90,-99.99,,,0.00,weatherlink.com 1.10,2013-01-09 06:36:00,
2013-01-09 01:51:00,25.2,22.0,28.76,WNW,287,0.0,-999.0,89,-99.99,,,0.00,weatherlink.com 1.10,2013-01-09 06:51:00,
2013-01-09 02:06:00,25.0,22.0,28.76,WNW,287,0.0,-999.0,89,-99.99,,,0.00,weatherlink.com 1.10,2013-01-09 07:06:00,
2013-01-09 02:21:00,24.8,22.0,28.34,WNW,287,0.0,-999.0,90,-99.99,,,0.00,weatherlink.com 1.10,2013-01-09 07:21:00,
2013-01-09 02:36:00,24.5,22.0,28.41,WNW,287,0.0,-999.0,89,-99.99,,,0.00,weatherlink.com 1.10,2013-01-09 07:36:00,
2013-01-09 02:51:00,24.8,22.0,28.41,WNW,287,0.0,-999.0,90,-99.99,,,0.00,weatherlink.com 1.10,2013-01-09 07:51:00,
2013-01-09 03:06:00,24.8,22.0,28.06,WNW,287,0.0,-999.0,90,-99.99,,,0.00,weatherlink.com 1.10,2013-01-09 08:06:00,
2013-01-09 03:21:00,24.5,22.0,28.06,WNW,287,0.0,-999.0,90,-99.99,,,0.00,weatherlink.com 1.10,2013-01-09 08:21:00,
2013-01-09 03:36:00,24.7,22.0,28.06,WNW,287,0.0,-999.0,90,-99.99,,,0.00,weatherlink.com 1.10,2013-01-09 08:36:00,
2013-01-09 03:51:00,24.3,22.0,28.06,WNW,287,0.0,-999.0,90,-99.99,,,0.00,weatherlink.com 1.10,2013-01-09 08:51:00,
2013-01-09 04:06:00,24.0,22.0,28.34,WNW,287,0.0,-999.0,90,-99.99,,,0.00,weatherlink.com 1.10,2013-01-09 09:06:00,
2013-01-09 04:21:00,23.8,21.0,28.34,WNW,287,0.0,-999.0,90,-99.99,,,0.00,weatherlink.com 1.10,2013-01-09 09:21:00,
2013-01-09 04:36:00,23.4,21.0,28.71,WNW,287,0.0,-999.0,90,-99.99,,,0.00,weatherlink.com 1.10,2013-01-09 09:36:00,
2013-01-09 04:51:00,22.9,20.0,28.62,WNW,287,0.0,-999.0,90,-99.99,,,0.00,weatherlink.com 1.10,2013-01-09 09:51:00,
2013-01-09 05:06:00,22.6,20.0,28.62,WNW,287,0.0,-999.0,90,-99.99,,,0.00,weatherlink.com 1.10,2013-01-09 10:06:00,
2013-01-09 05:21:00,22.2,20.0,28.62,WNW,287,0.0,-999.0,90,-99.99,,,0.00,weatherlink.com 1.10,2013-01-09 10:21:00,
2013-01-09 05:36:00,21.8,19.0,28.62,WNW,287,0.0,-999.0,90,-99.99,,,0.00,weatherlink.com 1.10,2013-01-09 10:36:00,
2013-01-09 05:51:00,21.5,19.0,28.62,WNW,287,0.0,-999.0,90,-99.99,,,0.00,weatherlink.com 1.10,2013-01-09 10:51:00,
2013-01-09 06:06:00,21.0,19.0,28.75,WNW,287,0.0,-999.0,90,-99.99,,,0.00,weatherlink.com 1.10,2013-01-09 11:06:00,
2013-01-09 06:21:00,21.1,19.0,28.76,WNW,287,0.0,-999.0,91,-99.99,,,0.00,weatherlink.com 1.10,2013-01-09 11:21:00,
2013-01-09 06:35:00,20.7,18.0,28.76,WNW,287,0.0,-999.0,90,-99.99,,,0.00,weatherlink.com 1.10,2013-01-09 11:35:00,
2013-01-09 06:50:00,20.4,18.0,28.96,WNW,287,0.0,-999.0,90,-99.99,,,0.00,weatherlink.com 1.10,2013-01-09 11:50:00,
2013-01-09 07:05:00,20.0,18.0,28.52,WNW,287,0.0,-999.0,90,-99.99,,,0.00,weatherlink.com 1.10,2013-01-09 12:05:00,
2013-01-09 07:20:00,19.7,17.0,28.56,WNW,287,0.0,-999.0,90,-99.99,,,0.00,weatherlink.com 1.10,2013-01-09 12:20:00,
2013-01-09 07:36:00,19.4,17.0,28.48,WNW,287,0.0,-999.0,90,-99.99,,,0.00,weatherlink.com 1.10,2013-01-09 12:36:00,
2013-01-09 07:51:00,19.5,17.0,28.45,WNW,287,0.0,-999.0,90,-99.99,,,0.00,weatherlink.com 1.10,2013-01-09 12:51:00,
2013-01-09 08:06:00,20.4,18.0,28.55,WNW,287,0.0,-999.0,91,-99.99,,,0.00,weatherlink.com 1.10,2013-01-09 13:06:00,
2013-01-09 08:21:00,21.1,19.0,28.55,WNW,287,0.0,-999.0,91,-99.99,,,0.00,weatherlink.com 1.10,2013-01-09 13:21:00,
2013-01-09 08:36:00,21.6,19.0,29.12,WNW,287,0.0,-999.0,91,-99.99,,,0.00,weatherlink.com 1.10,2013-01-09 13:36:00,
2013-01-09 08:51:00,22.9,21.0,28.86,WNW,287,0.0,-999.0,91,-99.99,,,0.00,weatherlink.com 1.10,2013-01-09 13:51:00,
2013-01-09 09:06:00,23.4,21.0,28.86,WNW,287,0.0,-999.0,91,-99.99,,,0.00,weatherlink.com 1.10,2013-01-09 14:06:00,
2013-01-09 09:21:00,24.5,22.0,28.66,WNW,287,0.0,-999.0,91,-99.99,,,0.00,weatherlink.com 1.10,2013-01-09 14:21:00,
2013-01-09 09:35:00,25.8,24.0,28.66,WNW,287,0.0,-999.0,91,-99.99,,,0.00,weatherlink.com 1.10,2013-01-09 14:35:00,
2013-01-09 09:50:00,27.4,25.0,28.73,WNW,287,0.0,-999.0,91,-99.99,,,0.00,weatherlink.com 1.10,2013-01-09 14:50:00,
2013-01-09 10:05:00,29.0,27.0,28.73,WNW,287,0.0,-999.0,91,-99.99,,,0.00,weatherlink.com 1.10,2013-01-09 15:05:00,
2013-01-09 10:20:00,30.1,27.0,28.11,WNW,287,0.0,-999.0,89,-99.99,,,0.00,weatherlink.com 1.10,2013-01-09 15:20:00,
2013-01-09 10:36:00,31.4,28.0,28.67,WNW,287,0.0,-999.0,86,-99.99,,,0.00,weatherlink.com 1.10,2013-01-09 15:36:00,
2013-01-09 10:51:00,32.5,28.0,28.67,WNW,287,0.0,-999.0,82,-99.99,,,0.00,weatherlink.com 1.10,2013-01-09 15:51:00,
2013-01-09 11:06:00,33.3,28.0,28.67,WNW,287,0.0,-999.0,80,-99.99,,,0.00,weatherlink.com 1.10,2013-01-09 16:06:00,
2013-01-09 11:21:00,33.5,27.0,28.67,WNW,287,0.0,-999.0,78,-99.99,,,0.00,weatherlink.com 1.10,2013-01-09 16:21:00,
2013-01-09 11:36:00,34.2,28.0,26.52,WNW,287,0.0,-999.0,77,-99.99,,,0.00,weatherlink.com 1.10,2013-01-09 16:36:00,
2013-01-09 11:51:00,34.8,27.0,26.55,WNW,287,0.0,-999.0,73,-99.99,,,0.00,weatherlink.com 1.10,2013-01-09 16:51:00,
2013-01-09 12:06:00,35.6,27.0,25.48,SSE,163,0.0,-999.0,71,-99.99,,,0.00,weatherlink.com 1.10,2013-01-09 17:06:00,
2013-01-09 12:21:00,36.3,27.0,25.48,SSE,163,0.0,-999.0,70,-99.99,,,0.00,weatherlink.com 1.10,2013-01-09 17:21:00,
2013-01-09 12:36:00,37.1,28.0,25.94,SSE,161,0.0,-999.0,71,-99.99,,,0.00,weatherlink.com 1.10,2013-01-09 17:36:00,
2013-01-09 12:51:00,38.0,29.0,25.94,SSE,159,0.0,-999.0,69,-99.99,,,0.00,weatherlink.com 1.10,2013-01-09 17:51:00,
2013-01-09 13:06:00,38.6,28.0,25.94,SSE,153,3.0,-999.0,67,-99.99,,,0.00,weatherlink.com 1.10,2013-01-09 18:06:00,
2013-01-09 13:21:00,39.3,28.0,25.94,SE,134,0.0,-999.0,65,-99.99,,,0.00,weatherlink.com 1.10,2013-01-09 18:21:00,
2013-01-09 13:36:00,40.0,29.0,25.94,SSW,213,2.0,-999.0,65,-99.99,,,0.01,weatherlink.com 1.10,2013-01-09 18:36:00,
2013-01-09 13:51:00,40.4,29.0,25.41,ESE,122,0.0,-999.0,65,-99.99,,,0.01,weatherlink.com 1.10,2013-01-09 18:51:00,
2013-01-09 14:06:00,41.0,29.0,25.41,SE,129,0.0,-999.0,63,-99.99,,,0.01,weatherlink.com 1.10,2013-01-09 19:06:00,
2013-01-09 14:21:00,41.4,30.0,25.41,SE,124,0.0,-999.0,63,-99.99,,,0.01,weatherlink.com 1.10,2013-01-09 19:21:00,
2013-01-09 14:36:00,41.6,29.0,25.41,SE,124,0.0,-999.0,61,-99.99,,,0.01,weatherlink.com 1.10,2013-01-09 19:36:00,
2013-01-09 14:51:00,41.4,29.0,25.41,NW,304,0.0,-999.0,61,-99.99,,,0.01,weatherlink.com 1.10,2013-01-09 19:51:00,
2013-01-09 15:06:00,41.5,28.0,24.94,SE,125,0.0,-999.0,60,-99.99,,,0.01,weatherlink.com 1.10,2013-01-09 20:06:00,
2013-01-09 15:21:00,42.0,29.0,25.39,SSW,194,0.0,-999.0,60,-99.99,,,0.01,weatherlink.com 1.10,2013-01-09 20:21:00,
2013-01-09 15:36:00,41.8,29.0,24.86,SE,124,0.0,-999.0,62,-99.99,,,0.01,weatherlink.com 1.10,2013-01-09 20:36:00,
2013-01-09 15:51:00,41.9,30.0,25.91,NNE,22,2.0,-999.0,62,-99.99,,,0.01,weatherlink.com 1.10,2013-01-09 20:51:00,
2013-01-09 16:06:00,41.6,30.0,25.91,SSE,157,1.0,-999.0,64,-99.99,,,0.01,weatherlink.com 1.10,2013-01-09 21:06:00,
2013-01-09 16:21:00,41.2,31.0,25.91,South,171,1.0,-999.0,66,-99.99,,,0.01,weatherlink.com 1.10,2013-01-09 21:21:00,
2013-01-09 16:36:00,39.9,30.0,25.91,WNW,291,0.0,-999.0,69,-99.99,,,0.01,weatherlink.com 1.10,2013-01-09 21:36:00,
2013-01-09 16:51:00,40.5,31.0,25.91,WSW,244,0.0,-999.0,68,-99.99,,,0.01,weatherlink.com 1.10,2013-01-09 21:51:00,
2013-01-09 17:06:00,40.8,31.0,25.91,NW,321,0.0,-999.0,69,-99.99,,,0.01,weatherlink.com 1.10,2013-01-09 22:06:00,
2013-01-09 17:21:00,40.9,31.0,25.91,SSW,195,0.0,-999.0,69,-99.99,,,0.01,weatherlink.com 1.10,2013-01-09 22:21:00,
2013-01-09 17:36:00,40.9,32.0,25.91,South,171,1.0,-999.0,71,-99.99,,,0.01,weatherlink.com 1.10,2013-01-09 22:36:00,
2013-01-09 17:51:00,40.9,33.0,25.91,SSW,209,0.0,-999.0,72,-99.99,,,0.01,weatherlink.com 1.10,2013-01-09 22:51:00,
2013-01-09 18:06:00,40.6,33.0,25.91,ESE,123,0.0,-999.0,73,-99.99,,,0.01,weatherlink.com 1.10,2013-01-09 23:06:00,
2013-01-09 18:21:00,40.6,33.0,25.91,NW,323,0.0,-999.0,75,-99.99,,,0.01,weatherlink.com 1.10,2013-01-09 23:21:00,
2013-01-09 18:36:00,40.6,33.0,25.91,SSW,205,0.0,-999.0,75,-99.99,,,0.01,weatherlink.com 1.10,2013-01-09 23:36:00,
2013-01-09 18:51:00,40.9,34.0,25.91,SW,215,5.0,-999.0,75,-99.99,,,0.01,weatherlink.com 1.10,2013-01-09 23:51:00,
2013-01-09 19:06:00,40.9,34.0,25.91,West,279,3.0,-999.0,75,-99.99,,,0.01,weatherlink.com 1.10,2013-01-10 00:06:00,
2013-01-09 19:21:00,40.7,34.0,25.91,WSW,252,0.0,-999.0,76,-99.99,,,0.01,weatherlink.com 1.10,2013-01-10 00:21:00,
2013-01-09 19:36:00,40.4,33.0,25.91,NNW,333,0.0,-999.0,76,-99.99,,,0.01,weatherlink.com 1.10,2013-01-10 00:36:00,
2013-01-09 19:51:00,39.7,33.0,25.91,NW,315,0.0,-999.0,77,-99.99,,,0.01,weatherlink.com 1.10,2013-01-10 00:51:00,
2013-01-09 20:06:00,40.1,34.0,25.91,WNW,288,0.0,-999.0,79,-99.99,,,0.01,weatherlink.com 1.10,2013-01-10 01:06:00,
2013-01-09 20:21:00,40.7,34.0,25.91,NNE,15,0.0,-999.0,77,-99.99,,,0.01,weatherlink.com 1.10,2013-01-10 01:21:00,
2013-01-09 20:36:00,41.4,34.0,25.91,WNW,292,0.0,-999.0,76,-99.99,,,0.01,weatherlink.com 1.10,2013-01-10 01:36:00,
2013-01-09 20:51:00,41.9,34.0,23.46,WSW,257,1.0,-999.0,74,-99.99,,,0.01,weatherlink.com 1.10,2013-01-10 01:51:00,
2013-01-09 21:06:00,41.4,34.0,23.46,SW,233,0.0,-999.0,74,-99.99,,,0.01,weatherlink.com 1.10,2013-01-10 02:06:00,
2013-01-09 21:21:00,41.4,34.0,23.46,NNW,333,3.0,-999.0,74,-99.99,,,0.01,weatherlink.com 1.10,2013-01-10 02:21:00,
2013-01-09 21:36:00,41.6,34.0,23.46,West,280,0.0,-999.0,73,-99.99,,,0.01,weatherlink.com 1.10,2013-01-10 02:36:00,
2013-01-09 21:51:00,41.7,33.0,23.46,WNW,285,0.0,-999.0,72,-99.99,,,0.01,weatherlink.com 1.10,2013-01-10 02:51:00,
2013-01-09 22:06:00,41.3,33.0,23.46,WSW,249,2.0,-999.0,72,-99.99,,,0.01,weatherlink.com 1.10,2013-01-10 03:06:00,
2013-01-09 22:21:00,41.4,33.0,23.46,NW,322,2.0,-999.0,71,-99.99,,,0.01,weatherlink.com 1.10,2013-01-10 03:21:00,
2013-01-09 22:36:00,40.9,32.0,23.46,NW,315,1.0,-999.0,71,-99.99,,,0.01,weatherlink.com 1.10,2013-01-10 03:36:00,
2013-01-09 22:51:00,41.2,32.0,23.46,North,355,1.0,-999.0,70,-99.99,,,0.01,weatherlink.com 1.10,2013-01-10 03:51:00,
2013-01-09 23:06:00,42.2,30.0,23.46,South,187,2.0,-999.0,62,-99.99,,,0.01,weatherlink.com 1.10,2013-01-10 04:06:00,
2013-01-09 23:21:00,42.0,29.0,23.46,SE,134,0.0,-999.0,61,-99.99,,,0.01,weatherlink.com 1.10,2013-01-10 04:21:00,
2013-01-09 23:36:00,42.2,28.0,23.46,WNW,299,0.0,-999.0,58,-99.99,,,0.01,weatherlink.com 1.10,2013-01-10 04:36:00,
2013-01-09 23:51:00,42.9,28.0,23.46,NW,306,3.0,-999.0,56,-99.99,,,0.01,weatherlink.com 1.10,2013-01-10 04:51:00,